Content
SEND FEEDBACK

Daily
Averages
Monthly
Summary
France

CANNES, FRANCE


Home > Europe > France
Elevation: 30 feet     Latitude: 43 33N     Longitude: 006 57E

WEATHER
 
SELECT A DAY
Number of Records: 112,185;   Date Range: 7/1/96 - 10/18/14
 
SHARE

PRINT THIS DATA

[ ← Previous Day ]
WEATHER ALMANAC - NOVEMBER 5, 2013
[ Next Day → ]
[ °C ]   °F
Weather ElementAverageHighLow
Temperature58.6 °F69.8 °F (11:00 pm)46.4 °F (4:00 am)
Dewpoint43.6 °F51.8 °F (11:00 am)35.6 °F (3:30 pm)
Humidity62.4 %93 % (2:00 am)30 % (3:30 pm)
Barometer29.46 in29.53 in (9:30 pm)29.42 in (12:30 am)
Wind Speed5.7 mph15 mph (4:00 pm)
Wind Gust25.3 mph (11:30 pm)
Weather ElementAverage
Visibility6.2 mi
Wind DirectionSSE (158.3 °)

Weather ElementTotal
Precipitation---
Heating Degree Days6.9 (Base 65)
Growing Degree Days8.1 (Base 50)
Averaged from 47 records on November 5, 2013
WEATHER CONDITIONS BREAKOUT
WIND DIRECTION BREAKOUT
WEATHER BY HOUR - NOVEMBER 5, 2013
[ °C ]   °F
Local TimeTemperatureDewpointHumidityBarometerVisibilityWind DirectionWind SpeedGust SpeedPrecipitationEventsConditions
12:30 AM50.0 °F44.6 °F82 %29.42 in6.2 miVariable2.3 mph
1:00 AM50.0 °F44.6 °F82 %29.42 in6.2 miNNW (340°)3.5 mph
1:30 AM48.2 °F44.6 °F87 %29.42 in6.2 miNNW (330°)4.6 mph
2:00 AM48.2 °F46.4 °F93 %29.42 in6.2 miNNE (20°)4.6 mph
2:30 AM48.2 °F44.6 °F87 %29.42 in6.2 miVariable3.5 mph
3:00 AM48.2 °F44.6 °F87 %29.42 in6.2 miVariable2.3 mph
3:30 AM48.2 °F44.6 °F87 %29.42 in6.2 miVariable2.3 mph
4:00 AM46.4 °F44.6 °F93 %29.42 in6.2 miVariable2.3 mph
4:30 AM46.4 °F44.6 °F93 %29.42 in6.2 miNorth (360°)3.5 mph
5:00 AM46.4 °F44.6 °F93 %29.42 in6.2 miVariable3.5 mph
5:30 AM46.4 °F44.6 °F93 %29.42 in6.2 miNorth (360°)3.5 mph
6:00 AM46.4 °F44.6 °F93 %29.42 in6.2 miNorth (360°)4.6 mph
6:30 AM46.4 °F44.6 °F93 %29.42 in6.2 miVariable2.3 mph
7:00 AM46.4 °F44.6 °F93 %29.44 in6.2 miVariable3.5 mph
7:30 AM46.4 °F44.6 °F93 %29.44 in6.2 miNorth (350°)4.6 mph
8:00 AM46.4 °F44.6 °F93 %29.44 in6.2 miVariable3.5 mph
8:30 AM50.0 °F46.4 °F87 %29.47 in6.2 miNorth (360°)3.5 mph
9:00 AM53.6 °F48.2 °F82 %29.47 in6.2 miVariable2.3 mph
9:30 AM57.2 °F50.0 °F77 %29.47 in6.2 miVariable2.3 mph
10:00 AM62.6 °F50.0 °F63 %29.47 in6.2 miCalm
10:30 AM60.8 °F50.0 °F68 %29.47 in6.2 miVariable2.3 mph
11:00 AM60.8 °F51.8 °F72 %29.50 in6.2 miVariable2.3 mph
11:30 AM62.6 °F48.2 °F59 %29.50 in6.2 miVariable2.3 mph
12:00 PM62.6 °F42.8 °F48 %29.47 in6.2 miSW (220°)3.5 mph
12:30 PM62.6 °F46.4 °F55 %29.47 in6.2 miVariable2.3 mph
1:00 PM64.4 °F48.2 °F56 %29.47 in6.2 miVariable1.2 mph
1:30 PM64.4 °F50.0 °F59 %29.47 in6.2 miCalm
2:00 PM66.2 °F48.2 °F52 %29.44 in6.2 miCalm
2:30 PM64.4 °F46.4 °F52 %29.47 in6.2 miVariable2.3 mph
3:00 PM64.4 °F41.0 °F42 %29.44 in6.2 miSSE (160°)3.5 mph
3:30 PM68.0 °F35.6 °F30 %29.44 in6.2 miVariable4.6 mph19.6 mph
4:00 PM68.0 °F35.6 °F30 %29.44 in6.2 miWNW (290°)15.0 mph
4:30 PM68.0 °F35.6 °F30 %29.44 in6.2 miWNW (290°)13.8 mph
5:00 PM66.2 °F37.4 °F35 %29.44 in6.2 miWest (280°)13.8 mph
5:30 PM64.4 °F37.4 °F37 %29.47 in6.2 miWNW (290°)10.4 mph
6:00 PM64.4 °F39.2 °F40 %29.47 in6.2 miWest (270°)10.4 mph
6:30 PM64.4 °F41.0 °F42 %29.47 in6.2 miWest (260°)11.5 mph
7:00 PM64.4 °F41.0 °F42 %29.47 in6.2 miWest (280°)10.4 mph21.9 mph
7:30 PM66.2 °F41.0 °F40 %29.47 in6.2 miWest (270°)11.5 mph
8:00 PM66.2 °F41.0 °F40 %29.47 in6.2 miWest (280°)10.4 mph
8:30 PM68.0 °F41.0 °F37 %29.50 in6.2 miWest (280°)12.7 mph
9:00 PM68.0 °F41.0 °F37 %29.50 in6.2 miWNW (290°)10.4 mph
9:30 PM68.0 °F41.0 °F37 %29.53 in6.2 miWest (280°)10.4 mph
10:00 PM68.0 °F41.0 °F37 %29.53 in6.2 miWNW (290°)11.5 mph
10:30 PM68.0 °F41.0 °F37 %29.50 in6.2 miNW (310°)8.1 mph
11:00 PM69.8 °F39.2 °F33 %29.50 in6.2 miNW (310°)10.4 mph
11:30 PM69.8 °F39.2 °F33 %29.50 in6.2 miNW (310°)12.7 mph25.3 mph
Hourly data recorded from LFMD, located miles away from Cannes, France







STORIES FROM OUR PARTNERS